STARLINK-35818

Last updated on Fri Dec 19 2025 00:02:05 GMT+0000 (Coordinated Universal Time)

1 66540U 25265AA 25352.43998549 .00064709 00000+0 10984-2 0 9998 2 66540 42.9990 20.5704 0001507 269.1628 90.9059 15.50612575 4644
UTC large
Height (km)
Speed (km/s)
/
Latitude / Longitude
Inclination (degrees)
Orbital Period (minutes)
Azimuth
Elevation
Range (km)
Doppler Factor

Next 0 passes for location: London (51.5072 / 0.1276)

Sorry there are no passes over London.